TimeMST,TemperatureF,Dew PointF,Humidity,Sea Level PressureIn,VisibilityMPH,Wind Direction,Wind SpeedMPH,Gust SpeedMPH,PrecipitationIn,Events,Conditions,WindDirDegrees,DateUTC
12:53 AM,51.1,21.0,31,29.61,10.0,ENE,5.8,-,N/A,,Clear,70,2011-11-24 07:53:00
1:53 AM,48.0,23.0,37,29.62,10.0,NNW,5.8,-,N/A,,Clear,330,2011-11-24 08:53:00
2:53 AM,48.0,24.1,39,29.63,10.0,North,8.1,-,N/A,,Clear,10,2011-11-24 09:53:00
3:53 AM,48.2,26.6,43,29.67,10.0,North,10.4,-,N/A,,Mostly Cloudy,350,2011-11-24 10:53:00
4:53 AM,46.9,28.9,50,29.72,10.0,NW,10.4,18.4,N/A,,Overcast,310,2011-11-24 11:53:00
5:53 AM,45.0,30.9,58,29.75,10.0,North,6.9,-,N/A,,Overcast,360,2011-11-24 12:53:00
6:53 AM,43.0,32.0,65,29.78,10.0,North,8.1,-,N/A,,Overcast,360,2011-11-24 13:53:00
7:53 AM,41.0,32.0,70,29.80,10.0,NW,3.5,-,N/A,,Overcast,310,2011-11-24 14:53:00
8:53 AM,39.0,32.0,76,29.81,10.0,Calm,Calm,-,N/A,,Overcast,0,2011-11-24 15:53:00
9:53 AM,39.9,33.1,77,29.83,10.0,West,9.2,-,N/A,,Overcast,280,2011-11-24 16:53:00
10:53 AM,42.1,33.1,70,29.82,10.0,Calm,Calm,-,N/A,,Overcast,0,2011-11-24 17:53:00
11:53 AM,43.0,33.1,68,29.80,10.0,Calm,Calm,-,N/A,,Overcast,0,2011-11-24 18:53:00
12:53 PM,42.8,33.8,70,29.77,10.0,South,3.5,-,N/A,,Overcast,170,2011-11-24 19:53:00
1:53 PM,43.0,33.1,68,29.78,10.0,Calm,Calm,-,N/A,,Overcast,0,2011-11-24 20:53:00
2:53 PM,42.1,34.0,73,29.78,10.0,Calm,Calm,-,0.01,Rain,Light Rain,0,2011-11-24 21:53:00
3:53 PM,41.0,37.0,86,29.78,10.0,Calm,Calm,-,0.01,Rain,Light Rain,0,2011-11-24 22:53:00
4:20 PM,41.0,35.6,81,29.76,10.0,Calm,Calm,-,0.00,,Overcast,0,2011-11-24 23:20:00
4:53 PM,39.0,35.1,86,29.78,10.0,Calm,Calm,-,0.00,,Overcast,0,2011-11-24 23:53:00
5:53 PM,37.4,35.6,93,29.75,10.0,NW,8.1,-,N/A,,Overcast,320,2011-11-25 00:53:00
6:53 PM,37.0,34.0,89,29.79,10.0,WNW,3.5,-,N/A,,Overcast,300,2011-11-25 01:53:00
7:53 PM,37.0,35.1,93,29.76,10.0,Variable,4.6,-,N/A,,Mostly Cloudy,0,2011-11-25 02:53:00
8:53 PM,35.6,33.8,93,29.73,10.0,WNW,4.6,-,N/A,,Overcast,300,2011-11-25 03:53:00
9:53 PM,34.0,32.0,92,29.76,10.0,Calm,Calm,-,N/A,,Clear,0,2011-11-25 04:53:00
10:53 PM,35.1,33.1,92,29.76,10.0,NNW,5.8,-,N/A,,Overcast,330,2011-11-25 05:53:00
11:53 PM,34.0,32.0,92,29.75,10.0,SSE,8.1,-,0.00,,Overcast,150,2011-11-25 06:53:00